KI5NXU Weather Reports


Display with metric or nautical units.
time (UTC)temp
F
wind
direction
speed
MPH
gust
MPH
rain 1hr
in
rain 24hr
in
rain mn
in
humidity
%
barometer
mb
20260505200141 85 345 5.0 9.0 0.00 0.00 0.00 45 1005.0
20260505195637 86 287 7.0 9.0 0.00 0.00 0.00 46 1004.9
20260505195134 85 29 5.0 8.0 0.00 0.00 0.00 42 1004.9
20260505194631 85 339 7.0 8.0 0.00 0.00 0.00 41 1005.0
20260505194127 85 285 11.0 13.0 0.00 0.00 0.00 41 1005.0
20260505193624 84 353 5.0 6.0 0.00 0.00 0.00 43 1005.0
20260505193121 83 349 6.0 10.0 0.00 0.00 0.00 42 1005.1
20260505192620 83 339 10.0 10.0 0.00 0.00 0.00 43 1005.0
20260505192117 83 330 7.0 9.0 0.00 0.00 0.00 41 1005.0
20260505191615 84 32 8.0 10.0 0.00 0.00 0.00 40 1005.0
20260505191113 87 266 5.0 6.0 0.00 0.00 0.00 50 1004.7
20260505190608 87 244 5.0 5.0 0.00 0.00 0.00 49 1004.5
20260505190104 87 275 3.0 6.0 0.00 0.00 0.00 48 1004.5
20260505185600 86 281 8.0 10.0 0.00 0.00 0.00 50 1004.7
20260505185057 87 251 3.0 3.0 0.00 0.00 0.00 57 1004.8
20260505184554 86 209 9.0 9.0 0.00 0.00 0.00 55 1004.4
20260505184050 86 232 9.0 10.0 0.00 0.00 0.00 56 1004.9
20260505183547 87 231 6.0 6.0 0.00 0.00 0.00 54 1004.8
20260505183045 86 218 13.0 14.0 0.00 0.00 0.00 54 1004.9
20260505182541 86 225 11.0 13.0 0.00 0.00 0.00 55 1004.8
20260505182038 86 225 7.0 9.0 0.00 0.00 0.00 58 1004.8
20260505181534 85 231 8.0 9.0 0.00 0.00 0.00 59 1004.7
20260505181033 86 224 12.0 14.0 0.00 0.00 0.00 56 1004.6
20260505180528 85 229 9.0 9.0 0.00 0.00 0.00 58 1004.7
20260505180027 84 239 12.0 14.0 0.00 0.00 0.00 57 1004.7
20260505175526 84 225 11.0 11.0 0.00 0.00 0.00 58 1004.7
20260505175023 84 224 10.0 11.0 0.00 0.00 0.00 60 1004.9
20260505174520 84 228 9.0 10.0 0.00 0.00 0.00 58 1004.7
20260505174016 84 226 6.0 8.0 0.00 0.00 0.00 60 1004.9
20260505173513 84 214 10.0 11.0 0.00 0.00 0.00 59 1004.8
20260505173010 83 220 9.0 10.0 0.00 0.00 0.00 62 1004.9
20260505172508 83 230 7.0 8.0 0.00 0.00 0.00 62 1004.9
20260505172009 84 209 10.0 11.0 0.00 0.00 0.00 61 1004.6
20260505171505 84 222 10.0 11.0 0.00 0.00 0.00 59 1004.9
20260505171001 84 225 12.0 14.0 0.00 0.00 0.00 59 1004.9
20260505170458 83 220 9.0 9.0 0.00 0.00 0.00 59 1004.7
20260505165954 83 233 10.0 11.0 0.00 0.00 0.00 60 1004.6
20260505165450 83 239 4.0 6.0 0.00 0.00 0.00 59 1004.6
20260505164945 83 235 9.0 10.0 0.00 0.00 0.00 58 1004.4
20260505164442 83 245 11.0 14.0 0.00 0.00 0.00 59 1004.6
20260505163940 83 218 9.0 9.0 0.00 0.00 0.00 59 1004.5
20260505163439 83 219 11.0 13.0 0.00 0.00 0.00 59 1004.3
20260505162937 83 229 11.0 11.0 0.00 0.00 0.00 61 1004.5
20260505162433 82 230 10.0 11.0 0.00 0.00 0.00 61 1004.1
20260505161930 82 252 9.0 11.0 0.00 0.00 0.00 62 1004.3
20260505161426 82 229 7.0 8.0 0.00 0.00 0.00 64 1004.6
20260505160924 82 237 7.0 9.0 0.00 0.00 0.00 63 1004.6
20260505160422 82 222 8.0 8.0 0.00 0.00 0.00 63 1004.6
20260505152858 80 226 7.0 7.0 0.00 0.00 0.00 69 1003.8
20260505152356 80 226 7.0 8.0 0.00 0.00 0.00 69 1003.9
20260505151855 79 217 6.0 7.0 0.00 0.00 0.00 71 1004.1
20260505151352 78 207 8.0 9.0 0.00 0.00 0.00 70 1004.1
20260505150849 78 222 9.0 10.0 0.00 0.00 0.00 71 1004.1
20260505150347 78 222 6.0 6.0 0.00 0.00 0.00 72 1004.2
20260505140317 74 219 7.0 8.0 0.00 0.00 0.00 78 1003.5
20260505130240 72 231 12.0 14.0 0.00 0.00 0.00 80 1003.1
20260505124731 72 209 10.0 10.0 0.00 0.00 0.00 81 1003.1
20260505124228 72 219 10.0 13.0 0.00 0.00 0.00 80 1003.0
20260505123723 72 218 9.0 11.0 0.00 0.00 0.00 80 1003.0
20260505123220 72 215 9.0 9.0 0.00 0.00 0.00 81 1003.0
20260505122717 71 223 14.0 16.0 0.00 0.00 0.00 81 1003.0
20260505122214 71 228 13.0 15.0 0.00 0.00 0.00 81 1002.8
20260505121710 71 223 9.0 11.0 0.00 0.00 0.00 81 1003.0
20260505121207 72 219 11.0 15.0 0.00 0.00 0.00 80 1003.0
20260505120703 71 201 14.0 17.0 0.00 0.00 0.00 80 1002.6
20260505120159 71 215 8.0 9.0 0.00 0.00 0.00 81 1002.6
20260505115653 71 218 10.0 11.0 0.00 0.00 0.00 81 1002.7
20260505115151 72 214 11.0 13.0 0.00 0.00 0.00 80 1002.7
20260505114648 72 224 13.0 15.0 0.00 0.00 0.00 80 1002.5
20260505114144 72 213 10.0 14.0 0.00 0.00 0.00 80 1002.4
20260505113641 72 205 13.0 16.0 0.00 0.00 0.00 80 1002.3
20260505113137 72 221 12.0 17.0 0.00 0.00 0.00 79 1002.5
20260505112633 72 217 13.0 16.0 0.00 0.00 0.00 79 1002.2
20260505112132 72 221 12.0 14.0 0.00 0.00 0.00 80 1002.4
20260505111625 72 225 12.0 14.0 0.00 0.00 0.00 79 1002.3
20260505111121 72 223 13.0 14.0 0.00 0.00 0.00 79 1002.4
20260505110618 73 208 13.0 17.0 0.00 0.00 0.00 78 1002.2
20260505110115 73 209 16.0 20.0 0.00 0.00 0.00 78 1002.2
20260505102051 72 205 15.0 18.0 0.00 0.00 0.00 78 1002.3
20260505101549 72 226 13.0 15.0 0.00 0.00 0.00 79 1002.4
20260505101045 73 235 18.0 21.0 0.00 0.00 0.00 78 1002.3
20260505100542 72 215 10.0 13.0 0.00 0.00 0.00 79 1002.4
20260505100039 72 218 11.0 13.0 0.00 0.00 0.00 78 1002.3
20260505095535 73 211 9.0 10.0 0.00 0.00 0.00 78 1002.2
20260505095031 73 222 11.0 14.0 0.00 0.00 0.00 79 1002.3
20260505094528 72 216 10.0 13.0 0.00 0.00 0.00 79 1002.4
20260505094024 72 223 10.0 11.0 0.00 0.00 0.00 79 1002.1
20260505093521 73 217 11.0 14.0 0.00 0.00 0.00 79 1002.4
20260505093018 72 226 10.0 11.0 0.00 0.00 0.00 79 1002.4
20260505092515 72 218 12.0 13.0 0.00 0.00 0.00 79 1002.5
20260505092014 72 220 11.0 13.0 0.00 0.00 0.00 79 1002.3
20260505091510 72 215 9.0 10.0 0.00 0.00 0.00 77 1002.5
20260505091009 72 214 11.0 11.0 0.00 0.00 0.00 78 1002.6
20260505090506 73 219 11.0 13.0 0.00 0.00 0.00 78 1002.6
20260505090003 72 208 12.0 14.0 0.00 0.00 0.00 79 1002.8
20260505085501 73 213 7.0 8.0 0.00 0.00 0.00 79 1002.7
20260505084959 73 207 9.0 10.0 0.00 0.00 0.00 78 1002.6
20260505084457 73 198 6.0 7.0 0.00 0.00 0.00 78 1002.8
20260505083955 73 183 6.0 7.0 0.00 0.00 0.00 78 1002.7
20260505083452 73 206 8.0 9.0 0.00 0.00 0.00 77 1002.6
20260505082949 73 225 8.0 9.0 0.00 0.00 0.00 77 1002.7
20260505082444 73 201 9.0 13.0 0.00 0.00 0.00 77 1002.8
20260505081942 73 220 8.0 9.0 0.00 0.00 0.00 77 1003.2
20260505081438 73 211 8.0 11.0 0.00 0.00 0.00 77 1003.1
20260505080934 73 211 9.0 10.0 0.00 0.00 0.00 76 1003.1
20260505080431 73 213 8.0 9.0 0.00 0.00 0.00 77 1002.7
20260505075926 73 200 8.0 10.0 0.00 0.00 0.00 77 1003.3
20260505075423 73 222 7.0 9.0 0.00 0.00 0.00 77 1003.4
20260505074921 73 208 4.0 6.0 0.00 0.00 0.00 77 1003.5
20260505074418 73 211 4.0 5.0 0.00 0.00 0.00 78 1003.4
20260505073915 74 203 6.0 8.0 0.00 0.00 0.00 77 1003.3
20260505073413 73 191 5.0 6.0 0.00 0.00 0.00 76 1003.7
20260505072910 73 208 7.0 9.0 0.00 0.00 0.00 76 1003.3
20260505072406 74 204 5.0 7.0 0.00 0.00 0.00 76 1003.7
20260505071902 74 216 11.0 13.0 0.00 0.00 0.00 75 1003.8
20260505071358 74 207 9.0 10.0 0.00 0.00 0.00 75 1003.6
20260505070856 74 209 9.0 10.0 0.00 0.00 0.00 75 1003.6
20260505070353 74 219 7.0 8.0 0.00 0.00 0.00 75 1003.8
20260505065848 74 224 7.0 10.0 0.00 0.00 0.00 75 1003.8
20260505065345 74 195 5.0 7.0 0.00 0.00 0.00 75 1003.9
20260505064842 74 199 4.0 5.0 0.00 0.00 0.00 75 1004.0
20260505064339 74 214 7.0 9.0 0.00 0.00 0.00 75 1004.1
20260505063837 74 204 7.0 8.0 0.00 0.00 0.00 74 1004.2
20260505063333 75 212 10.0 14.0 0.00 0.00 0.00 75 1004.2
20260505062830 74 207 6.0 7.0 0.00 0.00 0.00 75 1004.0
20260505062327 74 209 6.0 6.0 0.00 0.00 0.00 74 1004.2
20260505061823 74 201 8.0 10.0 0.00 0.00 0.00 74 1004.3
20260505061322 74 202 7.0 9.0 0.00 0.00 0.00 74 1004.1
20260505060819 74 199 5.0 6.0 0.00 0.00 0.00 75 1004.4
20260505060316 74 170 3.0 6.0 0.00 0.00 0.00 74 1004.4
20260505055811 74 201 4.0 5.0 0.00 0.00 0.00 75 1004.3
20260505055307 74 207 5.0 6.0 0.00 0.00 0.00 74 1004.5
20260505054805 74 183 3.0 3.0 0.00 0.00 0.00 75 1004.4
20260505054302 75 193 5.0 7.0 0.00 0.00 0.00 74 1004.4
20260505053801 75 183 3.0 3.0 0.00 0.00 0.00 74 1004.5
20260505053257 74 202 6.0 8.0 0.00 0.00 0.00 73 1004.4
20260505052754 75 207 6.0 7.0 0.00 0.00 0.00 73 1004.4
20260505052251 75 191 2.0 3.0 0.00 0.00 0.00 73 1004.5
20260505051748 75 196 2.0 2.0 0.00 0.00 0.00 73 1004.6
20260505051246 75 207 5.0 7.0 0.00 0.00 0.00 72 1004.2
20260505050744 75 195 8.0 13.0 0.00 0.00 0.00 72 1004.4
20260505050243 75 198 4.0 7.0 0.00 0.00 0.00 72 1004.5
20260505041712 77 192 5.0 7.0 0.00 0.00 0.00 70 1004.1
20260505041209 77 161 3.0 6.0 0.00 0.00 0.00 70 1004.4
20260505040706 77 171 3.0 7.0 0.00 0.00 0.00 69 1004.1
20260505040203 77 209 2.0 5.0 0.00 0.00 0.00 69 1004.2
20260505035700 77 181 1.0 2.0 0.00 0.00 0.00 69 1004.2
20260505035156 77 197 2.0 5.0 0.00 0.00 0.00 69 1004.5
20260505034652 77 162 3.0 5.0 0.00 0.00 0.00 69 1004.1
20260505034150 77 175 2.0 2.0 0.00 0.00 0.00 69 1004.1
20260505033646 77 144 2.0 3.0 0.00 0.00 0.00 69 1004.1
20260505033145 78 157 1.0 1.0 0.00 0.00 0.00 69 1004.4
20260505032642 78 190 2.0 2.0 0.00 0.00 0.00 69 1004.3
20260505032138 78 152 1.0 2.0 0.00 0.00 0.00 68 1004.1
20260505031636 78 164 4.0 6.0 0.00 0.00 0.00 69 1004.1
20260505031132 78 134 2.0 2.0 0.00 0.00 0.00 68 1004.1
20260505030629 78 127 1.0 2.0 0.00 0.00 0.00 68 1004.1
20260505030125 78 184 4.0 6.0 0.00 0.00 0.00 67 1003.8
20260505025621 78 158 7.0 9.0 0.00 0.00 0.00 68 1003.9
20260505025120 78 147 2.0 3.0 0.00 0.00 0.00 67 1003.8
20260505024617 78 183 3.0 5.0 0.00 0.00 0.00 68 1003.9
20260505024114 78 181 5.0 9.0 0.00 0.00 0.00 67 1003.7
20260505023611 78 168 7.0 14.0 0.00 0.00 0.00 68 1003.8
20260505023108 78 150 2.0 5.0 0.00 0.00 0.00 68 1003.8
20260505022606 78 166 2.0 5.0 0.00 0.00 0.00 68 1003.7
20260505022102 78 158 6.0 11.0 0.00 0.00 0.00 68 1003.8
20260505021559 78 205 3.0 6.0 0.00 0.00 0.00 68 1003.6
20260505021056 78 152 6.0 10.0 0.00 0.00 0.00 68 1003.8
20260505020556 77 164 4.0 7.0 0.00 0.00 0.00 69 1003.4
20260505020053 77 146 5.0 8.0 0.00 0.00 0.00 69 1004.0
20260505015550 78 170 3.0 3.0 0.00 0.00 0.00 69 1003.5
20260505015047 77 161 2.0 3.0 0.00 0.00 0.00 69 1003.8
20260505014543 77 197 2.0 3.0 0.00 0.00 0.00 70 1003.9
20260505014041 77 160 3.0 5.0 0.00 0.00 0.00 70 1004.1
20260505013538 77 155 2.0 5.0 0.00 0.00 0.00 70 1003.9
20260505013035 77 157 1.0 1.0 0.00 0.00 0.00 70 1003.7
20260505012533 78 157 3.0 5.0 0.00 0.00 0.00 69 1003.7
20260505012030 78 150 3.0 6.0 0.00 0.00 0.00 69 1003.9
20260505011525 78 157 2.0 6.0 0.00 0.00 0.00 69 1003.9
20260505011023 78 159 2.0 3.0 0.00 0.00 0.00 68 1003.9
20260505010518 78 173 4.0 6.0 0.00 0.00 0.00 68 1003.9
20260505010015 78 149 3.0 5.0 0.00 0.00 0.00 67 1004.1
20260505005511 79 174 3.0 5.0 0.00 0.00 0.00 67 1004.2
20260505005009 79 176 3.0 5.0 0.00 0.00 0.00 67 1004.1
20260505004506 79 150 1.0 1.0 0.00 0.00 0.00 66 1004.0
20260505004002 80 153 1.0 2.0 0.00 0.00 0.00 66 1004.1
20260505003459 80 142 1.0 1.0 0.00 0.00 0.00 65 1004.2
20260505002956 80 155 2.0 3.0 0.00 0.00 0.00 65 1004.2
20260505002452 80 149 1.0 2.0 0.00 0.00 0.00 64 1004.2
20260505001950 80 160 3.0 6.0 0.00 0.00 0.00 64 1004.2
20260505001448 81 154 3.0 7.0 0.00 0.00 0.00 64 1004.4
20260505000944 81 180 1.0 2.0 0.00 0.00 0.00 63 1004.4
20260505000443 81 143 0.0 1.0 0.00 0.00 0.00 63 1004.3
20260504235939 81 183 2.0 2.0 0.00 0.00 0.00 63 1004.8
20260504235437 81 131 0.0 1.0 0.00 0.00 0.00 62 1004.6
20260504234932 82 169 2.0 3.0 0.00 0.00 0.00 61 1004.7
20260504234430 82 206 4.0 7.0 0.00 0.00 0.00 61 1004.7
20260504233926 83 140 0.0 3.0 0.00 0.00 0.00 60 1004.7
20260504233422 83 145 1.0 1.0 0.00 0.00 0.00 60 1004.5
20260504232920 83 217 2.0 5.0 0.00 0.00 0.00 60 1004.6
20260504232417 83 198 3.0 3.0 0.00 0.00 0.00 60 1004.5
20260504231914 83 149 3.0 9.0 0.00 0.00 0.00 60 1004.4
20260504231409 83 156 5.0 9.0 0.00 0.00 0.00 60 1004.4
20260504230906 84 206 6.0 10.0 0.00 0.00 0.00 58 1004.6
20260504230403 84 160 3.0 6.0 0.00 0.00 0.00 58 1004.6
20260504225902 84 152 5.0 8.0 0.00 0.00 0.00 58 1004.7
20260504225358 84 139 2.0 5.0 0.00 0.00 0.00 59 1004.7
20260504224856 84 193 3.0 8.0 0.00 0.00 0.00 58 1004.9
20260504224352 84 207 8.0 10.0 0.00 0.00 0.00 57 1004.7
20260504223849 85 171 1.0 2.0 0.00 0.00 0.00 56 1004.9
20260504223344 86 126 5.0 8.0 0.00 0.00 0.00 55 1004.8
20260504222841 86 218 5.0 9.0 0.00 0.00 0.00 55 1004.3
20260504222338 85 186 5.0 10.0 0.00 0.00 0.00 55 1004.8
20260504221837 85 177 6.0 11.0 0.00 0.00 0.00 56 1004.6
20260504221333 85 176 4.0 5.0 0.00 0.00 0.00 56 1004.7
20260504220830 86 158 7.0 9.0 0.00 0.00 0.00 54 1004.6
20260504220327 87 154 2.0 3.0 0.00 0.00 0.00 54 1005.0
20260504215824 86 120 3.0 3.0 0.00 0.00 0.00 55 1005.1
20260504215320 86 205 3.0 5.0 0.00 0.00 0.00 53 1004.9
20260504214816 87 203 4.0 9.0 0.00 0.00 0.00 52 1005.0
20260504214314 87 198 3.0 3.0 0.00 0.00 0.00 52 1005.0
20260504213810 88 199 3.0 6.0 0.00 0.00 0.00 52 1005.1
20260504213306 87 172 1.0 2.0 0.00 0.00 0.00 52 1005.0
20260504212804 87 211 4.0 6.0 0.00 0.00 0.00 52 1005.3
20260504212300 87 157 2.0 3.0 0.00 0.00 0.00 53 1005.4
20260504211758 85 204 5.0 6.0 0.00 0.00 0.00 54 1005.5
20260504211253 86 169 2.0 2.0 0.00 0.00 0.00 54 1005.5
20260504210751 86 224 2.0 3.0 0.00 0.00 0.00 52 1005.6
20260504210248 86 134 7.0 11.0 0.00 0.00 0.00 53 1005.5
20260504205745 86 186 2.0 2.0 0.00 0.00 0.00 53 1005.9
20260504205243 86 174 3.0 3.0 0.00 0.00 0.00 54 1006.0
20260504204741 86 162 6.0 13.0 0.00 0.00 0.00 52 1006.1
20260504204239 86 205 9.0 13.0 0.00 0.00 0.00 54 1006.2
20260504203738 87 158 10.0 14.0 0.00 0.00 0.00 53 1006.0
20260504203235 86 195 4.0 7.0 0.00 0.00 0.00 52 1006.0
20260504202735 85 203 6.0 7.0 0.00 0.00 0.00 53 1006.2
20260504202232 86 205 12.0 14.0 0.00 0.00 0.00 53 1006.4
20260504201729 87 169 1.0 2.0 0.00 0.00 0.00 52 1006.5
20260504201226 86 180 2.0 2.0 0.00 0.00 0.00 53 1006.4
20260504200724 86 197 3.0 5.0 0.00 0.00 0.00 53 1006.6